Location: *
(33.8649°S, 62.1526°E)
Time: 11:51:12
(UTC+00:00)

SL-16 R/B - Pass Details

Date: 17 January 2021
Orbit: 985 x 1007 km, 99.5° (Epoch: 02 March)

Event Time Altitude Azimuth Distance (km) Brightness Sun altitude
Rises 21:52:42 0° 159° (SSE) 3,764 6.7 -29.5°
Reaches altitude 10° 21:55:20 10° 152° (SSE) 2,808 5.8 -29.2°
Maximum altitude 22:01:22 45° 80° (E) 1,349 3.3 -28.6°
Enters shadow 22:02:56 38° 43° (NE) 1,493 3.3 -28.4°
